When you browse on this site, cookies collect data to enhance your experience and personalize the content and advertising you see.
Visit our Privacy Policy to learn more. By continuing to use the site, you agree to this use of cookies and data.
  • In Romania
  • List of Countries
  • For 7 days
  • Water Temperature
  • Weather Map
  • Weather Widgets
  • user-avatar
    Login

    Hourly Weather Birao

    Today, 24 August, Saturday

    Time Temperature Precipitation Wind Pressure Humidity
    00:00 +25°C° 0.8 mm 1 mps 719 mmHg 92%
    01:00 +24°C° 0.8 mm 1 mps 719 mmHg 93%
    02:00 +22°C° 0 mm 0 mps 719 mmHg 93%
    03:00 +22°C° 0.7 mm 0 mps 719 mmHg 93%
    04:00 +24°C° 0.7 mm 1 mps 719 mmHg 93%
    05:00 +24°C° 0.7 mm 1 mps 719 mmHg 93%
    06:00 +24°C° 0 mm 1 mps 719 mmHg 93%
    07:00 +24°C° 0 mm 2 mps 719 mmHg 94%
    08:00 +25°C° 0 mm 2 mps 720 mmHg 94%
    09:00 +26°C° 0 mm 2 mps 720 mmHg 87%
    10:00 +28°C° 0 mm 2 mps 720 mmHg 80%
    11:00 +29°C° 0 mm 2 mps 720 mmHg 74%
    12:00 +30°C° 0.2 mm 2 mps 719 mmHg 72%
    13:00 +30°C° 0.2 mm 2 mps 718 mmHg 70%
    14:00 +31°C° 0 mm 2 mps 718 mmHg 64%
    15:00 +31°C° 1 mm 2 mps 718 mmHg 69%
    16:00 +30°C° 1 mm 2 mps 717 mmHg 73%
    17:00 +30°C° 1 mm 1 mps 717 mmHg 78%
    18:00 +28°C° 1.4 mm 1 mps 717 mmHg 81%
    19:00 +27°C° 1.4 mm 1 mps 718 mmHg 84%
    20:00 +26°C° 1.4 mm 1 mps 718 mmHg 88%
    21:00 +25°C° 0.1 mm 1 mps 718 mmHg 89%
    22:00 +25°C° 0.1 mm 1 mps 719 mmHg 90%
    23:00 +24°C° 0.1 mm 2 mps 719 mmHg 92%

    Tomorrow, 25 August, Sunday

    Time Temperature Precipitation Wind Pressure Humidity
    00:00 +24°C° 0 mm 2 mps 719 mmHg 93%
    01:00 +24°C° 0 mm 2 mps 719 mmHg 94%
    02:00 +23°C° 0 mm 2 mps 718 mmHg 95%
    03:00 +23°C° 0.2 mm 2 mps 718 mmHg 96%
    04:00 +23°C° 0.2 mm 2 mps 718 mmHg 97%
    05:00 +23°C° 0.2 mm 2 mps 718 mmHg 98%
    06:00 +23°C° 0 mm 2 mps 719 mmHg 97%
    07:00 +24°C° 0 mm 2 mps 719 mmHg 95%
    08:00 +24°C° 0 mm 3 mps 720 mmHg 94%
    09:00 +25°C° 0 mm 3 mps 720 mmHg 92%
    10:00 +25°C° 0 mm 3 mps 720 mmHg 89%
    11:00 +26°C° 0 mm 3 mps 720 mmHg 86%
    12:00 +27°C° 0.1 mm 3 mps 720 mmHg 83%
    13:00 +28°C° 0.1 mm 3 mps 719 mmHg 79%
    14:00 +29°C° 0.1 mm 3 mps 718 mmHg 75%
    15:00 +29°C° 0.8 mm 2 mps 718 mmHg 78%
    16:00 +29°C° 0.8 mm 2 mps 718 mmHg 81%
    17:00 +28°C° 0.8 mm 2 mps 717 mmHg 84%
    18:00 +27°C° 2.9 mm 2 mps 717 mmHg 86%
    19:00 +26°C° 2.9 mm 2 mps 718 mmHg 89%
    20:00 +25°C° 2.9 mm 3 mps 718 mmHg 91%
    21:00 +24°C° 0.9 mm 2 mps 718 mmHg 93%
    22:00 +24°C° 0.9 mm 2 mps 719 mmHg 94%
    23:00 +24°C° 0.9 mm 2 mps 719 mmHg 96%

    Day after tomorrow, 26 August, Monday

    Time Temperature Precipitation Wind Pressure Humidity
    00:00 +23°C° 0 mm 2 mps 719 mmHg 96%
    01:00 +23°C° 0 mm 2 mps 719 mmHg 97%
    02:00 +23°C° 0 mm 2 mps 719 mmHg 97%
    03:00 +23°C° 0 mm 2 mps 719 mmHg 98%
    04:00 +23°C° 0 mm 1 mps 719 mmHg 98%
    05:00 +22°C° 0 mm 1 mps 719 mmHg 98%
    06:00 +23°C° 0 mm 2 mps 719 mmHg 97%
    07:00 +23°C° 0 mm 2 mps 720 mmHg 96%
    08:00 +24°C° 0 mm 3 mps 720 mmHg 95%
    09:00 +25°C° 0 mm 3 mps 720 mmHg 88%
    10:00 +26°C° 0 mm 3 mps 720 mmHg 81%
    11:00 +28°C° 0 mm 3 mps 720 mmHg 74%
    12:00 +29°C° 0 mm 3 mps 720 mmHg 71%
    13:00 +29°C° 0 mm 3 mps 719 mmHg 69%
    14:00 +30°C° 0 mm 3 mps 718 mmHg 66%
    15:00 +30°C° 0.1 mm 3 mps 718 mmHg 69%
    16:00 +30°C° 0.1 mm 2 mps 717 mmHg 71%
    17:00 +30°C° 0.1 mm 2 mps 716 mmHg 73%
    18:00 +28°C° 0.1 mm 2 mps 717 mmHg 78%
    19:00 +27°C° 0.1 mm 2 mps 717 mmHg 83%
    20:00 +25°C° 0.1 mm 2 mps 718 mmHg 88%
    21:00 +25°C° 0.8 mm 2 mps 718 mmHg 91%
    22:00 +24°C° 0.8 mm 2 mps 719 mmHg 93%
    23:00 +24°C° 0.8 mm 1 mps 719 mmHg 96%

    27 August, Tuesday

    Time Temperature Precipitation Wind Pressure Humidity
    00:00 +24°C° 0.9 mm 2 mps 719 mmHg 96%
    01:00 +23°C° 0.9 mm 2 mps 719 mmHg 96%
    02:00 +23°C° 0.9 mm 2 mps 718 mmHg 96%
    03:00 +23°C° 0 mm 1 mps 718 mmHg 96%
    04:00 +23°C° 0 mm 1 mps 718 mmHg 96%
    05:00 +23°C° 0 mm 1 mps 718 mmHg 96%
    06:00 +23°C° 0 mm 1 mps 719 mmHg 95%
    07:00 +24°C° 0 mm 1 mps 719 mmHg 95%
    08:00 +24°C° 0 mm 1 mps 720 mmHg 94%
    09:00 +25°C° 0 mm 1 mps 720 mmHg 88%
    10:00 +27°C° 0 mm 2 mps 720 mmHg 82%
    11:00 +28°C° 0 mm 2 mps 720 mmHg 76%
    12:00 +29°C° 0.1 mm 2 mps 720 mmHg 73%
    13:00 +30°C° 0.1 mm 3 mps 719 mmHg 70%
    14:00 +31°C° 0.1 mm 3 mps 718 mmHg 67%
    15:00 +29°C° 1.6 mm 3 mps 718 mmHg 74%
    16:00 +28°C° 1.6 mm 2 mps 718 mmHg 80%
    17:00 +27°C° 1.6 mm 2 mps 717 mmHg 86%
    18:00 +26°C° 1.4 mm 2 mps 718 mmHg 88%
    19:00 +26°C° 1.4 mm 1 mps 718 mmHg 89%
    20:00 +25°C° 1.4 mm 1 mps 718 mmHg 90%
    21:00 +24°C° 0.2 mm 1 mps 719 mmHg 92%
    22:00 +24°C° 0.2 mm 1 mps 719 mmHg 93%
    23:00 +24°C° 0.2 mm 1 mps 719 mmHg 94%

    28 August, Wednesday

    Time Temperature Precipitation Wind Pressure Humidity
    00:00 +24°C° 0 mm 1 mps 719 mmHg 95%
    01:00 +23°C° 0 mm 1 mps 719 mmHg 96%
    02:00 +23°C° 0 mm 1 mps 719 mmHg 97%
    03:00 +23°C° 0 mm 1 mps 719 mmHg 97%
    04:00 +23°C° 0 mm 1 mps 719 mmHg 97%
    05:00 +23°C° 0 mm 1 mps 719 mmHg 98%
    06:00 +23°C° 0 mm 1 mps 719 mmHg 97%
    07:00 +23°C° 0 mm 1 mps 720 mmHg 97%
    08:00 +24°C° 0 mm 1 mps 720 mmHg 96%
    09:00 +25°C° 0 mm 1 mps 720 mmHg 90%
    10:00 +26°C° 0 mm 1 mps 720 mmHg 85%
    11:00 +28°C° 0 mm 2 mps 720 mmHg 79%
    12:00 +29°C° 0 mm 2 mps 719 mmHg 75%
    13:00 +30°C° 0 mm 2 mps 719 mmHg 71%
    14:00 +30°C° 0 mm 2 mps 718 mmHg 67%
    15:00 +30°C° 0 mm 2 mps 718 mmHg 70%
    16:00 +30°C° 0 mm 2 mps 717 mmHg 72%
    17:00 +30°C° 0 mm 2 mps 717 mmHg 74%
    18:00 +28°C° 0 mm 2 mps 717 mmHg 79%
    19:00 +27°C° 0 mm 2 mps 717 mmHg 84%
    20:00 +26°C° 0 mm 1 mps 718 mmHg 88%
    21:00 +25°C° 0 mm 1 mps 718 mmHg 90%
    22:00 +25°C° 0 mm 1 mps 718 mmHg 93%
    23:00 +24°C° 0 mm 2 mps 719 mmHg 95%

    29 August, Thursday

    Time Temperature Precipitation Wind Pressure Humidity
    00:00 +24°C° 0.1 mm 1 mps 718 mmHg 96%
    01:00 +24°C° 0.1 mm 1 mps 718 mmHg 97%
    02:00 +23°C° 0.1 mm 1 mps 718 mmHg 97%
    03:00 +23°C° 0.3 mm 1 mps 718 mmHg 98%
    04:00 +23°C° 0.3 mm 1 mps 718 mmHg 98%
    05:00 +23°C° 0.3 mm 1 mps 718 mmHg 98%
    06:00 +23°C° 0.4 mm 2 mps 719 mmHg 97%
    07:00 +24°C° 0.4 mm 2 mps 719 mmHg 96%
    08:00 +24°C° 0.4 mm 2 mps 719 mmHg 94%
    09:00 +26°C° 0 mm 2 mps 719 mmHg 88%
    10:00 +28°C° 0 mm 2 mps 719 mmHg 82%
    11:00 +30°C° 0 mm 3 mps 719 mmHg 75%
    12:00 +31°C° 0 mm 3 mps 718 mmHg 73%
    13:00 +31°C° 0 mm 3 mps 718 mmHg 70%
    14:00 +33°C° 0 mm 3 mps 717 mmHg 68%
    15:00 +32°C° 0 mm 2 mps 716 mmHg 70%
    16:00 +32°C° 0 mm 2 mps 716 mmHg 72%
    17:00 +31°C° 0 mm 2 mps 715 mmHg 75%
    18:00 +30°C° 0.3 mm 2 mps 715 mmHg 80%
    19:00 +28°C° 0.3 mm 2 mps 716 mmHg 84%
    20:00 +27°C° 0.3 mm 2 mps 716 mmHg 89%
    21:00 +26°C° 2.1 mm 1 mps 716 mmHg 91%
    22:00 +26°C° 2.1 mm 1 mps 717 mmHg 93%
    23:00 +25°C° 2.1 mm 1 mps 717 mmHg 94%
    Show more